Location: Beuerbach
(48.1459°N, 10.9174°E)
Time: 02:01:29
(UTC+00:00)

DELTA 2 R/B (1) - Pass Details

Date: 23 May 2024
Orbit: 788 x 801 km, 39.6° (Epoch: 19 June)

Event Time Altitude Azimuth Distance (km) Brightness Sun altitude
Exits shadow 00:26:21 34° 172° (S) 1,290 4.2 -19.3°
Drops below altitude 10° 00:31:07 10° 112° (ESE) 2,350 6.0 -19.0°
Sets 00:33:47 0° 104° (ESE) 3,278 6.9 -18.9°
